User: anonymous   Login
Location: Unspecified
(0.0000°N, 0.0000°E)
Time: 12:27:24
(UTC+01:00)
Language:

Cosmos 1300 - Orbit

View from above orbital plane
View from above orbital plane
View from above satellite
View from above satellite

Ground track
Ground track

The orbit data is extracted from the following two-line orbital elements,

1 12785U 81082A   14351.12087432  .00009466  00000-0  53773-3 0  8894
2 12785 082.5063 254.0534 0002893 112.0568 009.8632 15.12791731813565
Epoch (UTC): 17 December 2014 02:54:03
Eccentricity: 0.0002893
inclination: 82.5063°
perigee height: 525 km
apogee height: 529 km
right ascension of ascending node: 254.0534°
argument of perigee: 112.0568°
revolutions per day: 15.12791731
mean anomaly at epoch: 9.8632°
orbit number at epoch: 81356

The dashed part of the orbit path shows where the satellite is in the earth's shadow,  

DLR